Wetbulb
58.53 59.29 59.26 59.22 58.89 59.16 60.09 60.14 60.47 60.52 60.55 60.95 61.04 61.13 61.00 60.77 59.62 57.99 53.43 58.36 60.20 68.77 67.87 62.28 61.48 59.91 59.85 60.86 62.23 62.86 54.65 52.06 52.98 53.73 55.97 60.47 59.11 63.48 66.05 63.37 64.11 65.03 63.34 64.33 64.71
58.63 58.87 59.19 59.07 58.83 58.68 59.00 59.83 60.24 60.41 60.52 60.90 61.04 60.85 60.57 60.18 57.22 55.36 62.96 68.31 69.56 69.79 60.98 60.55 58.88 59.72 59.49 61.09 60.42 57.97 52.78 54.67 57.70 58.29 56.68 61.04 60.96 62.50 60.38 61.87 61.54 62.15 64.41 64.79 62.29
58.31 58.44 58.70 58.68 58.52 58.23 58.39 59.05 60.12 60.36 60.56 60.68 60.53 60.43 60.33 59.19 57.04 57.94 70.15 69.63 69.94 69.11 61.58 60.08 60.25 62.08 58.84 60.33 59.26 58.04 54.74 58.51 59.94 61.79 63.03 60.46 61.38 64.17 60.69 59.30 61.00 60.12 61.29 60.80 58.29
58.20 58.06 58.23 58.00 57.84 57.86 57.98 58.41 59.27 59.96 60.30 60.26 60.05 60.21 60.33 58.47 52.03 59.11 70.72 70.68 70.70 65.29 61.43 59.90 57.79 56.45 58.03 57.67 60.75 57.28 60.34 59.85 61.02 62.81 62.49 60.48 62.27 60.80 61.93 61.80 64.33 63.32 62.95 59.19 56.82
58.07 57.64 57.36 57.97 57.49 57.81 57.63 57.94 58.35 59.01 59.54 59.53 59.85 60.33 57.26 56.31 56.37 65.88 70.84 70.15 65.49 62.09 59.98 58.25 55.90 58.30 56.61 58.51 59.11 56.65 57.65 60.81 62.35 61.67 61.85 63.40 61.01 60.36 61.29 63.54 64.76 64.07 61.22 56.83 56.28
58.26 57.86 57.18 56.68 57.02 57.72 57.56 57.70 57.70 58.14 58.77 59.54 60.12 60.02 58.02 51.58 60.28 65.29 63.86 64.35 62.63 59.70 57.22 57.50 57.67 60.87 59.64 59.15 56.39 58.34 59.23 57.93 61.20 61.52 62.14 60.24 59.63 61.04 62.15 63.73 62.28 60.52 58.35 57.46 57.24
58.19 56.91 56.95 56.62 56.75 57.58 57.46 57.31 57.17 57.86 58.54 59.49 60.11 60.45 57.39 56.74 61.44 62.62 61.51 58.97 60.21 60.05 58.15 60.27 63.87 61.33 60.74 57.05 60.40 59.24 55.88 56.26 56.66 58.07 57.80 61.35 57.67 58.27 62.20 61.76 59.92 58.68 58.14 58.25 57.34
57.51 56.13 56.64 56.56 56.83 57.42 57.42 57.11 56.91 57.98 59.59 60.09 60.58 58.41 55.69 60.32 61.45 61.59 61.87 59.87 61.19 61.57 59.67 61.12 64.76 61.50 58.03 60.54 57.26 54.91 54.26 49.53 55.81 57.77 58.55 58.95 52.49 59.44 61.37 60.38 58.66 58.85 58.52 57.78 56.68
57.47 55.80 56.09 55.94 55.94 56.91 56.71 56.26 56.98 60.48 60.75 60.37 56.88 56.28 55.62 64.02 60.32 61.99 61.61 60.04 60.16 59.56 59.24 62.20 61.84 59.13 58.51 53.68 49.94 52.41 46.52 50.31 53.30 58.24 57.24 57.13 53.71 59.46 61.00 59.87 57.95 58.26 58.37 57.92 56.98
56.31 55.44 55.29 55.58 56.26 56.56 55.68 55.51 58.23 57.88 58.96 60.94 59.95 55.17 58.20 56.51 59.49 61.68 61.72 61.45 58.58 58.09 57.36 56.51 57.60 54.41 54.33 51.75 44.43 47.79 49.45 51.84 50.49 57.25 57.36 55.09 55.53 58.38 59.51 59.51 58.42 58.15 58.33 58.11 57.46
55.94 55.31 54.91 55.23 56.36 55.96 54.85 56.59 55.81 56.76 58.91 55.73 56.76 57.43 55.04 60.48 61.55 59.64 61.15 59.71 58.24 56.60 51.11 54.00 51.87 49.50 51.67 54.35 54.63 55.05 53.29 51.78 53.47 57.64 53.84 53.96 55.21 56.97 58.22 58.79 58.07 58.14 57.82 57.58 58.08
55.33 54.99 54.93 54.83 55.88 55.68 52.00 55.26 58.90 56.76 52.83 59.93 58.34 59.04 59.22 60.02 56.58 58.67 60.85 55.13 54.71 51.15 53.94 51.31 48.76 55.78 56.86 55.98 55.33 53.15 50.31 50.48 53.71 55.80 52.72 55.24 54.81 56.32 57.06 57.06 58.42 58.49 57.97 58.00 58.55
54.77 54.28 54.83 54.59 55.39 51.77 55.32 57.79 60.76 59.75 50.91 55.38 57.13 56.04 57.34 57.73 55.97 56.63 58.67 55.76 53.41 51.25 52.27 48.90 50.67 57.86 56.84 54.23 53.19 51.04 50.30 49.78 50.57 53.48 54.98 55.65 52.29 52.19 55.78 58.21 60.03 59.75 60.25 59.18 58.45
54.52 54.26 54.60 54.25 53.91 56.84 56.20 59.90 59.99 58.63 46.40 51.71 54.01 56.16 58.16 58.42 55.04 59.46 60.18 55.84 52.94 50.20 51.57 50.00 52.15 52.68 53.10 53.12 53.61 48.16 54.10 53.49 52.02 48.46 42.83 52.41 44.55 48.26 52.80 55.04 55.85 57.42 57.38 57.37 56.38
54.46 54.26 54.42 53.80 52.20 53.68 60.25 60.58 61.29 57.43 37.91 53.20 54.11 57.91 56.50 54.81 55.80 56.47 59.74 55.46 51.36 51.31 50.42 47.94 49.39 50.24 51.98 53.89 54.67 51.14 55.67 53.87 53.05 49.56 46.20 48.72 44.40 48.70 51.52 50.81 53.47 54.56 56.34 56.69 55.30
54.56 54.14 53.75 54.01 53.81 56.07 58.32 59.47 59.91 46.04 39.84 52.38 52.93 51.75 51.57 53.64 54.13 55.42 55.99 57.08 55.90 51.62 51.09 49.55 53.16 55.13 54.82 56.43 55.34 55.76 53.53 51.54 51.55 45.65 39.15 46.34 46.34 43.44 48.51 51.74 52.44 53.68 53.31 53.76 54.17
54.45 54.14 51.95 57.60 57.53 58.98 59.12 57.49 47.03 41.16 54.47 51.39 50.66 50.76 50.18 50.99 52.72 53.47 52.64 51.18 48.32 45.04 44.73 48.95 50.01 55.02 58.08 53.87 55.96 54.40 47.04 39.34 36.77 36.68 37.38 48.73 45.05 45.82 53.29 53.94 53.72 52.58 51.17 52.25 53.29
53.49 52.17 53.05 57.72 57.70 56.61 56.55 51.81 42.53 51.26 51.48 56.68 56.41 51.91 48.71 51.85 51.89 52.84 51.22 48.10 51.29 50.05 45.45 45.44 46.00 54.10 56.84 53.87 51.75 50.79 45.43 38.27 32.41 34.80 37.91 48.86 41.28 44.48 52.45 54.48 54.33 52.89 51.65 52.69 52.33
51.61 54.98 55.99 59.53 59.57 57.82 53.46 45.39 47.09 52.77 54.99 53.90 54.68 51.66 47.79 50.85 50.76 50.72 49.49 50.11 52.67 52.84 48.43 47.94 48.51 57.25 57.35 58.02 54.63 50.00 44.00 46.22 40.77 41.24 36.19 41.98 45.71 50.70 53.70 52.80 53.07 51.90 51.81 51.09 51.43
54.42 58.64 58.69 57.88 59.46 57.35 51.19 46.68 52.54 57.14 57.37 55.67 50.42 53.79 49.31 49.37 50.00 51.57 52.76 56.04 55.11 57.10 55.34 51.74 47.14 55.35 57.01 57.67 55.88 52.52 50.89 40.64 41.86 34.26 32.34 41.47 43.40 41.45 46.80 48.33 51.84 51.30 50.69 50.06 50.00
57.29 55.52 60.79 60.07 62.20 55.94 47.94 49.91 55.43 56.95 58.39 53.34 53.18 52.21 51.88 51.09 52.00 52.55 51.74 55.67 56.91 56.96 56.29 52.91 50.24 51.41 52.55 50.68 47.78 46.94 43.72 44.85 43.41 41.28 35.24 34.27 38.98 48.47 48.11 50.48 48.33 48.49 49.52 48.85 48.74
60.16 54.25 58.07 61.53 52.45 52.93 49.39 52.91 55.74 57.09 58.97 57.51 57.11 54.63 51.19 53.00 51.32 52.12 50.59 53.57 58.64 58.01 53.71 53.26 49.20 44.94 47.83 52.64 54.18 49.62 46.15 45.28 38.95 38.03 39.95 38.87 38.55 50.70 50.51 51.10 49.25 49.23 49.45 48.39 47.75
58.01 58.48 61.93 59.64 47.71 48.89 52.62 53.98 56.31 57.50 57.84 57.22 54.63 55.44 56.31 52.74 49.30 54.11 53.33 56.77 57.75 57.00 53.35 52.18 46.94 40.88 41.88 47.64 52.62 49.43 48.83 46.52 45.08 43.21 38.72 37.24 40.17 50.92 51.27 49.47 49.43 47.49 47.60 48.67 45.67
59.00 55.36 56.75 55.97 54.33 52.04 52.41 55.70 56.07 58.33 58.36 57.59 56.72 56.71 53.68 52.46 53.83 52.61 54.33 57.61 58.65 56.80 58.13 56.85 48.94 44.76 39.40 43.75 47.08 47.31 49.68 48.51 43.75 37.66 39.15 41.48 43.86 46.73 48.63 48.89 48.92 48.13 47.22 44.55 45.60
60.88 57.64 61.07 49.80 50.90 52.11 55.37 55.76 55.47 53.96 57.78 58.71 56.72 55.55 54.10 52.36 54.43 53.75 54.44 55.29 56.93 57.54 55.52 52.20 45.51 48.81 49.11 51.17 50.11 48.02 47.66 47.29 43.99 42.31 39.07 43.00 45.15 46.76 48.30 49.91 46.93 46.77 46.03 46.27 46.80
60.43 60.39 62.20 57.29 58.04 57.41 53.17 54.54 53.98 53.76 54.95 56.17 54.89 57.34 56.56 52.19 52.65 52.62 55.78 54.68 53.46 54.70 53.70 52.21 46.28 49.68 47.65 51.70 50.63 47.53 48.73 48.21 47.10 47.23 46.26 46.88 45.00 49.91 48.73 48.84 47.28 46.38 46.28 46.10 46.68
67.15 67.50 63.76 57.58 55.90 54.13 55.20 56.73 56.06 56.59 58.10 57.90 56.97 55.63 55.70 54.36 55.70 53.76 56.51 55.86 55.10 54.17 52.31 50.10 48.29 45.55 42.12 50.45 50.32 44.58 47.94 48.91 47.91 47.07 46.51 41.40 45.54 47.82 46.49 46.01 43.82 44.68 46.64 47.31 48.02
MSLP
1016.39 1015.97 1015.77 1015.60 1015.42 1015.22 1014.98 1014.72 1014.49 1014.26 1014.02 1013.94 1013.76 1013.56 1013.40 1013.12 1012.63 1012.67 1011.41 1009.02 1008.85 1009.25 1009.73 1009.89 1010.10 1009.60 1009.74 1010.10 1010.31 1011.95 1013.19 1013.38 1012.59 1011.28 1011.24 1011.36 1011.98 1012.71 1013.67 1014.00 1014.37 1014.51 1015.52 1016.53 1017.20
1016.21 1015.92 1015.62 1015.46 1015.27 1015.07 1014.85 1014.59 1014.30 1014.04 1013.93 1013.80 1013.53 1013.41 1013.35 1013.13 1012.60 1011.14 1008.58 1008.19 1008.42 1008.99 1009.61 1009.70 1009.54 1009.75 1010.29 1009.83 1010.65 1011.37 1012.48 1011.70 1010.12 1010.06 1010.40 1011.00 1011.60 1012.47 1013.87 1014.76 1015.70 1016.10 1016.73 1017.06 1017.63
1016.09 1015.79 1015.53 1015.24 1015.01 1014.80 1014.55 1014.29 1014.13 1013.89 1013.76 1013.52 1013.38 1013.32 1013.28 1013.16 1012.17 1009.10 1007.68 1008.03 1008.49 1008.89 1008.69 1008.59 1008.63 1008.63 1009.76 1010.38 1011.49 1011.90 1012.48 1011.59 1009.68 1009.39 1009.65 1010.76 1011.65 1012.46 1013.99 1015.00 1015.65 1016.40 1017.09 1017.90 1018.48
1016.06 1015.68 1015.42 1015.19 1014.94 1014.67 1014.42 1014.23 1014.07 1013.79 1013.62 1013.39 1013.34 1013.26 1013.15 1012.88 1010.96 1008.37 1008.16 1008.07 1008.71 1008.70 1008.78 1008.33 1008.14 1008.18 1009.55 1011.53 1011.88 1012.40 1012.47 1011.30 1009.43 1009.48 1009.71 1010.53 1011.84 1013.35 1014.08 1014.59 1015.83 1016.74 1017.32 1018.26 1019.04
1016.03 1015.67 1015.31 1015.01 1014.87 1014.57 1014.30 1014.12 1013.94 1013.74 1013.49 1013.30 1013.24 1013.10 1012.88 1011.92 1009.29 1008.12 1008.20 1008.55 1008.78 1008.69 1008.58 1008.42 1008.54 1007.99 1010.01 1011.72 1011.76 1013.05 1011.49 1010.25 1009.66 1009.86 1010.24 1010.71 1012.13 1013.56 1015.19 1015.67 1016.57 1017.36 1018.18 1019.15 1019.68
1015.93 1015.61 1015.27 1014.99 1014.71 1014.39 1014.11 1013.89 1013.70 1013.52 1013.36 1013.12 1013.02 1013.07 1012.50 1010.24 1007.36 1007.70 1007.98 1008.74 1008.34 1008.38 1008.01 1007.91 1007.99 1007.05 1010.23 1011.67 1012.75 1012.46 1010.92 1010.95 1010.96 1010.67 1010.67 1011.81 1013.20 1013.73 1016.08 1016.78 1017.72 1018.46 1019.14 1019.85 1020.35
1015.88 1015.52 1015.14 1014.86 1014.58 1014.25 1013.92 1013.60 1013.33 1013.23 1013.04 1012.77 1012.82 1012.61 1011.15 1008.20 1006.86 1007.59 1007.86 1007.57 1007.39 1007.44 1007.44 1007.17 1006.78 1007.78 1009.90 1011.06 1011.51 1013.09 1012.12 1012.33 1012.04 1012.53 1012.19 1012.12 1013.73 1014.93 1016.55 1017.43 1018.43 1019.31 1020.03 1020.57 1020.82
1015.81 1015.48 1015.02 1014.67 1014.41 1014.06 1013.69 1013.33 1012.99 1012.73 1012.47 1012.46 1012.66 1012.07 1009.68 1006.42 1006.62 1007.16 1007.37 1006.97 1006.44 1006.49 1006.42 1006.23 1006.50 1007.86 1009.05 1010.58 1012.28 1013.72 1014.38 1015.00 1013.68 1012.87 1012.42 1013.09 1014.22 1015.13 1016.18 1016.97 1018.31 1019.06 1019.59 1020.15 1020.55
1015.74 1015.41 1014.96 1014.61 1014.32 1013.89 1013.49 1013.07 1012.60 1012.36 1012.21 1012.36 1012.30 1011.29 1008.42 1006.14 1006.19 1006.13 1006.36 1006.30 1005.93 1005.92 1005.93 1005.88 1006.64 1008.32 1009.18 1010.50 1012.40 1013.53 1014.52 1014.89 1015.23 1012.96 1013.37 1013.62 1014.40 1014.89 1015.81 1016.36 1017.63 1018.53 1019.34 1019.98 1020.46
1015.65 1015.32 1014.92 1014.56 1014.23 1013.76 1013.10 1012.85 1012.23 1012.21 1012.12 1011.84 1010.78 1010.37 1007.51 1006.10 1005.79 1005.60 1005.61 1005.72 1005.91 1005.89 1006.00 1006.13 1007.07 1008.18 1009.53 1009.83 1010.66 1011.96 1013.77 1014.57 1013.82 1011.80 1012.32 1012.29 1013.60 1014.90 1015.54 1016.32 1016.92 1017.72 1018.32 1018.94 1019.52
1015.52 1015.17 1014.81 1014.45 1014.16 1013.82 1012.81 1012.24 1012.39 1011.72 1010.88 1009.47 1008.52 1007.15 1005.76 1005.49 1005.20 1005.35 1005.37 1005.64 1005.89 1006.08 1006.39 1006.36 1007.70 1007.95 1007.91 1008.14 1008.10 1009.71 1011.29 1012.37 1012.08 1010.89 1011.09 1012.08 1014.13 1015.59 1016.00 1015.98 1016.34 1017.30 1017.72 1018.10 1018.67
1015.35 1014.96 1014.56 1014.27 1014.00 1013.87 1013.91 1012.15 1008.95 1007.67 1008.05 1007.76 1007.09 1006.61 1005.66 1005.06 1005.10 1005.09 1005.18 1005.91 1006.12 1006.43 1006.41 1006.52 1006.69 1006.58 1006.56 1007.01 1007.74 1008.37 1008.81 1009.17 1009.76 1009.82 1010.65 1012.34 1014.88 1016.24 1016.47 1016.43 1016.53 1016.48 1017.06 1017.33 1017.71
1015.15 1014.79 1014.29 1013.95 1013.69 1013.73 1012.23 1009.71 1007.51 1006.93 1006.99 1005.95 1005.77 1005.32 1004.74 1004.79 1004.86 1004.84 1005.17 1005.63 1006.21 1006.41 1006.27 1006.47 1005.50 1005.39 1005.92 1006.21 1006.67 1007.20 1007.70 1008.13 1008.77 1008.95 1009.88 1012.24 1015.91 1017.72 1017.16 1016.40 1016.08 1015.66 1015.89 1016.70 1016.93
1014.91 1014.52 1014.04 1013.52 1013.59 1011.44 1010.07 1007.28 1006.99 1006.74 1006.96 1005.47 1004.54 1003.84 1003.81 1004.02 1004.20 1004.12 1004.48 1005.31 1005.89 1006.15 1006.11 1006.20 1004.97 1004.73 1005.07 1005.82 1006.50 1006.89 1007.10 1007.59 1008.07 1008.90 1009.96 1010.79 1015.30 1016.46 1017.85 1017.01 1016.00 1015.87 1015.82 1016.60 1016.90
1014.62 1014.21 1013.84 1013.72 1013.26 1010.85 1007.44 1006.67 1006.38 1006.85 1006.98 1004.14 1003.21 1002.62 1002.73 1003.53 1003.84 1003.70 1003.85 1004.59 1005.36 1005.79 1006.11 1005.79 1005.30 1004.93 1005.05 1005.96 1006.43 1007.16 1007.88 1008.36 1008.31 1008.86 1009.79 1012.09 1014.33 1017.22 1017.69 1017.43 1016.66 1016.31 1015.94 1016.19 1017.03
1014.25 1013.86 1013.52 1013.21 1012.81 1008.63 1007.46 1006.99 1006.88 1007.76 1006.53 1004.19 1003.17 1003.16 1003.59 1003.65 1003.71 1003.59 1003.78 1004.13 1004.44 1005.37 1005.50 1005.42 1004.75 1005.03 1005.32 1005.71 1006.15 1006.46 1008.11 1009.50 1009.16 1009.19 1010.51 1011.96 1013.83 1017.56 1017.46 1017.39 1016.62 1016.54 1016.24 1016.67 1017.26
1013.76 1013.47 1013.50 1011.97 1009.87 1007.71 1007.45 1007.01 1007.89 1007.73 1006.40 1004.94 1004.15 1003.97 1004.08 1004.07 1004.07 1004.08 1004.25 1004.64 1005.22 1005.79 1006.00 1005.56 1005.25 1004.74 1004.90 1005.67 1006.11 1006.87 1008.81 1009.80 1010.16 1010.85 1012.14 1013.10 1014.65 1016.53 1016.66 1016.75 1016.64 1016.76 1016.76 1016.93 1017.16
1013.06 1012.91 1011.62 1010.38 1008.98 1008.51 1008.24 1008.21 1008.42 1007.78 1007.63 1006.11 1005.72 1005.26 1004.92 1004.76 1004.73 1004.63 1004.86 1005.36 1005.35 1005.68 1006.06 1006.21 1005.71 1005.13 1005.09 1005.85 1006.84 1007.28 1008.37 1009.86 1010.97 1011.92 1012.94 1013.22 1015.46 1016.69 1016.69 1016.35 1016.20 1015.99 1016.65 1017.03 1017.31
1012.01 1011.42 1010.62 1008.33 1008.40 1009.00 1009.48 1009.19 1008.56 1008.55 1008.46 1007.83 1007.30 1006.42 1005.61 1005.37 1005.51 1005.65 1005.87 1006.32 1005.72 1005.73 1006.96 1006.69 1006.34 1005.70 1005.57 1005.53 1006.24 1007.02 1008.20 1009.03 1010.44 1011.26 1012.61 1014.78 1016.44 1016.74 1016.39 1016.30 1015.94 1016.58 1016.75 1017.12 1017.23
1012.16 1010.54 1008.38 1006.76 1007.03 1008.26 1009.20 1009.22 1009.07 1009.10 1008.58 1008.15 1008.64 1008.23 1007.76 1006.89 1006.81 1006.89 1008.39 1008.08 1008.09 1007.71 1007.54 1007.48 1007.13 1006.27 1005.94 1005.79 1006.17 1006.88 1007.75 1008.96 1010.65 1012.46 1013.74 1014.48 1015.67 1016.13 1016.32 1016.21 1016.06 1016.48 1016.89 1017.10 1017.18
1011.90 1009.92 1006.20 1005.83 1006.77 1008.26 1008.96 1008.68 1008.92 1008.69 1007.92 1008.36 1008.70 1010.20 1010.67 1009.73 1009.23 1009.32 1010.43 1009.04 1008.69 1008.70 1008.06 1008.21 1008.15 1007.53 1006.78 1006.77 1007.00 1007.25 1008.18 1009.34 1010.97 1012.34 1013.87 1014.93 1015.66 1015.31 1015.86 1016.35 1016.64 1016.82 1016.91 1016.99 1017.31
1011.38 1009.22 1005.34 1005.63 1007.50 1008.03 1008.35 1007.57 1007.62 1007.74 1006.64 1008.44 1009.78 1011.04 1010.41 1009.78 1009.69 1010.38 1011.15 1010.77 1009.43 1009.73 1009.14 1009.24 1009.09 1008.75 1008.21 1007.53 1007.26 1007.64 1008.49 1009.73 1011.61 1012.85 1013.77 1014.36 1016.03 1015.60 1016.00 1016.43 1016.83 1016.81 1016.92 1016.87 1017.01
1011.86 1008.79 1005.69 1005.84 1007.16 1007.73 1007.38 1007.32 1006.85 1006.61 1006.20 1007.01 1009.27 1008.86 1009.33 1008.48 1010.82 1009.74 1009.75 1009.38 1010.13 1010.74 1009.79 1009.94 1009.86 1009.78 1008.99 1008.45 1007.97 1008.07 1008.63 1009.41 1010.99 1012.18 1013.38 1014.21 1015.69 1015.70 1015.86 1016.26 1016.43 1016.65 1016.83 1016.90 1016.80
1012.30 1008.83 1006.83 1006.45 1006.73 1007.35 1007.75 1007.25 1006.67 1005.97 1005.80 1006.25 1006.61 1006.96 1008.21 1009.14 1009.57 1009.69 1010.34 1010.04 1010.31 1010.45 1010.02 1010.25 1010.40 1010.39 1009.97 1009.17 1008.59 1008.64 1008.63 1009.26 1010.53 1012.03 1012.92 1013.73 1014.98 1015.76 1016.08 1016.25 1016.33 1016.59 1016.59 1016.63 1016.74
1011.72 1008.92 1007.40 1007.05 1007.17 1007.46 1008.00 1007.56 1007.10 1007.91 1006.85 1006.29 1006.63 1006.96 1007.26 1008.08 1008.26 1008.68 1009.42 1009.78 1010.32 1010.24 1010.27 1010.50 1010.75 1010.44 1009.91 1009.38 1008.86 1009.08 1009.22 1009.60 1010.50 1011.33 1012.40 1013.50 1014.33 1015.15 1015.46 1015.58 1015.98 1016.27 1016.32 1016.59 1016.98
1011.44 1009.36 1007.61 1007.27 1006.95 1007.19 1008.22 1008.42 1008.51 1008.61 1009.15 1007.82 1007.57 1007.09 1006.96 1007.41 1007.97 1008.20 1008.49 1008.90 1009.44 1010.01 1010.07 1010.33 1010.93 1011.00 1010.82 1010.01 1009.32 1009.52 1009.76 1009.62 1010.16 1010.74 1011.73 1012.80 1014.02 1014.49 1015.19 1015.40 1015.85 1016.08 1016.32 1016.75 1017.08
1010.43 1008.87 1008.40 1008.10 1008.13 1008.25 1008.48 1008.65 1009.73 1010.48 1010.13 1008.77 1008.31 1007.66 1007.76 1007.19 1007.14 1007.37 1007.80 1008.67 1009.19 1009.39 1010.10 1010.53 1011.27 1011.98 1011.81 1010.92 1010.50 1010.62 1011.10 1009.92 1010.25 1010.82 1011.69 1012.67 1013.38 1014.02 1015.00 1015.32 1015.54 1015.90 1016.34 1016.84 1017.33
Wind_Speed
12 12 11 10 10 10 9 8 7 7 7 9 8 8 9 10 13 3 5 10 8 13 8 2 7 11 7 3 6 7 2 4 6 11 7 12 10 9 13 15 12 5 12 15 9
12 11 11 10 10 9 9 9 8 8 8 8 8 9 9 9 4 7 11 11 9 15 5 7 10 12 3 2 1 5 6 12 6 11 9 11 12 10 7 12 13 16 14 11 9
13 12 12 12 12 11 11 11 10 9 8 8 8 8 8 6 3 7 14 9 8 10 5 6 11 3 4 4 3 6 5 10 8 8 15 9 9 7 14 7 16 21 16 13 13
13 13 13 12 13 12 12 11 11 11 9 8 8 8 8 4 2 3 5 5 7 8 4 6 7 3 7 9 8 8 22 12 7 9 8 10 11 13 11 7 18 14 11 14 12
12 13 14 13 12 12 12 12 11 11 9 9 7 7 3 3 8 5 7 4 4 3 6 7 8 4 14 3 9 6 9 8 3 10 9 16 15 14 13 14 15 14 11 10 8
12 11 13 14 14 13 12 11 11 11 10 9 6 5 2 5 5 11 9 7 8 6 7 9 7 7 12 6 9 8 9 10 13 6 5 13 15 8 12 16 14 10 11 9 8
12 14 14 15 15 13 13 12 12 12 11 9 5 4 4 11 11 9 10 6 6 10 13 1 13 15 8 2 11 8 2 11 10 10 7 13 8 12 16 15 16 11 6 6 6
12 14 14 15 15 14 14 13 14 13 11 6 4 3 7 6 7 12 11 10 11 12 7 3 13 8 6 7 6 4 7 4 8 12 8 5 7 16 17 17 14 13 11 9 9
12 14 14 15 15 15 15 15 15 10 4 5 3 2 8 3 5 11 12 12 7 5 8 10 7 4 4 5 2 3 4 5 10 12 6 2 7 14 14 16 15 13 11 10 9
15 14 14 14 14 14 17 10 7 11 3 7 6 2 7 7 6 9 9 8 5 8 7 5 3 5 2 2 6 6 7 5 15 12 18 12 7 13 16 11 12 11 13 12 12
15 14 14 14 12 11 12 1 3 2 4 9 9 6 4 14 7 7 7 5 6 7 7 8 4 7 13 14 8 8 21 13 21 16 5 13 15 11 7 8 9 8 9 12 13
16 15 14 14 11 8 3 4 10 3 5 15 17 16 18 8 8 10 5 5 5 9 9 8 9 15 17 8 10 9 3 4 6 8 5 14 15 9 6 4 9 12 8 10 13
16 15 15 14 13 3 6 11 11 12 3 5 13 12 18 16 12 10 9 7 8 11 13 9 11 14 16 6 4 3 1 4 8 5 5 20 8 3 4 2 15 10 12 10 10
16 15 14 17 4 3 6 13 16 7 2 8 17 20 17 18 9 12 14 10 7 10 14 11 10 9 9 10 8 4 6 9 12 6 6 7 5 6 7 2 4 3 6 4 6
17 15 13 5 7 5 8 6 3 6 3 9 16 7 1 13 12 12 13 7 9 13 7 11 10 12 4 8 13 4 20 18 12 11 4 2 8 3 6 4 2 5 6 6 6
14 15 14 4 4 12 14 8 4 3 7 9 8 10 9 12 8 9 5 8 9 8 7 10 12 4 3 4 10 11 8 15 22 4 4 4 7 3 3 2 6 3 8 10 7
14 13 7 6 6 10 15 3 2 3 3 6 4 6 8 6 7 7 9 6 7 3 4 9 15 4 6 4 9 6 2 5 7 6 3 6 11 4 8 8 7 9 8 7 7
17 14 10 7 6 10 6 5 3 4 9 17 16 11 10 6 8 8 6 7 6 4 4 3 8 1 2 3 6 7 3 2 4 3 5 6 6 4 6 10 11 9 9 7 8
23 4 4 6 11 3 3 2 4 2 5 13 18 9 7 9 8 8 13 8 5 5 2 3 6 1 5 4 2 5 2 5 2 6 4 6 4 3 6 8 7 10 8 7 5
3 4 6 7 8 3 2 7 3 1 4 4 2 7 11 2 5 1 13 8 17 15 2 4 6 8 2 6 8 8 4 3 5 4 4 4 7 6 5 6 8 7 7 6 4
1 2 6 9 5 3 4 5 4 7 8 7 7 13 4 7 6 7 9 9 14 6 9 5 3 6 8 3 3 6 3 4 3 2 1 2 3 6 7 5 10 7 6 5 6
3 3 2 6 4 4 5 9 11 9 6 8 2 7 3 3 7 7 4 6 12 10 6 5 2 3 6 4 5 1 2 5 5 6 2 4 2 8 8 10 7 7 3 1 2
3 4 4 6 4 6 6 14 15 14 7 11 22 10 10 9 1 3 3 12 18 10 1 3 3 4 9 3 3 2 3 4 3 2 4 1 4 6 7 6 5 3 2 2 2
3 4 2 2 3 4 4 7 4 5 2 4 2 7 6 1 12 4 10 7 9 2 4 1 2 5 6 7 1 2 6 5 7 3 3 2 6 6 7 8 8 7 5 4 2
4 5 4 4 6 9 4 5 3 6 10 2 2 4 5 3 4 6 6 6 4 7 4 3 1 4 7 11 1 6 6 4 6 3 4 4 9 8 8 6 8 7 5 3 6
3 6 6 6 6 0 7 1 6 9 8 2 4 4 6 7 3 2 5 3 7 6 6 2 2 5 7 12 9 4 5 3 4 7 4 12 8 7 6 8 7 5 5 6 6
5 4 3 7 9 9 3 9 7 6 9 13 5 8 5 5 4 2 5 4 1 4 3 3 1 4 5 7 8 4 4 14 3 7 4 3 7 8 6 6 4 2 7 5 7
Wind_Direction
342 340 340 337 332 328 324 319 314 316 319 310 312 317 319 324 303 184 237 225 182 160 120 245 224 240 249 191 117 227 162 289 250 121 149 139 92 58 72 80 50 35 124 147 156
341 339 338 337 331 326 321 318 319 319 314 308 323 320 318 337 269 249 243 168 137 146 168 222 234 226 165 169 344 130 158 216 162 135 154 127 140 132 88 98 89 94 115 140 106
339 337 338 337 331 327 323 324 322 318 315 317 321 316 315 320 293 235 155 178 158 170 254 272 279 244 186 175 150 9 349 260 111 122 127 132 76 106 123 148 141 142 149 114 102
337 337 336 335 326 324 320 316 315 315 317 317 314 317 322 241 100 133 207 173 113 207 262 283 298 221 115 59 298 115 216 255 61 130 122 129 93 76 70 116 139 139 135 116 116
332 335 332 331 325 317 313 312 311 309 313 305 312 322 288 232 253 168 146 133 186 190 237 255 290 294 106 185 243 319 350 44 123 96 96 100 104 101 89 109 129 134 112 106 107
326 330 332 330 323 316 311 308 305 305 303 295 305 309 240 267 115 145 155 151 230 206 254 244 269 235 51 41 85 265 21 11 14 54 111 109 125 102 115 107 114 115 123 127 130
332 335 332 330 323 317 314 312 308 302 295 286 279 266 270 248 143 154 180 211 209 220 242 89 79 72 117 229 115 357 172 5 344 350 309 139 149 109 130 127 132 137 130 133 165
332 332 330 329 324 320 317 314 309 304 290 260 224 246 250 266 165 161 218 235 232 234 261 282 100 93 109 132 59 95 50 20 330 310 296 263 138 141 144 138 148 162 172 173 186
334 331 327 329 327 323 316 310 301 318 288 180 184 196 270 294 219 207 194 228 226 223 265 275 81 102 8 92 136 213 106 114 340 270 239 318 126 154 154 154 164 173 180 185 198
335 329 328 328 326 322 310 280 285 315 216 214 259 303 268 229 221 231 216 245 306 290 274 232 116 117 19 109 232 149 92 244 204 236 198 240 175 162 153 161 166 174 174 186 201
332 328 327 325 325 331 340 323 334 314 248 201 196 246 205 226 219 223 209 244 255 284 272 266 119 208 230 216 235 26 158 195 226 246 217 181 126 152 117 150 179 182 192 194 210
329 326 325 322 318 331 292 245 246 215 266 220 256 228 262 236 181 209 206 216 257 260 279 315 220 207 228 258 204 161 193 240 226 242 151 115 132 89 123 234 204 196 207 212 223
328 325 323 319 315 274 225 240 267 298 311 256 213 233 236 233 229 202 193 214 246 274 279 274 269 182 221 158 76 242 215 274 220 215 162 114 98 75 240 227 264 187 180 210 218
328 324 325 320 312 294 227 248 241 261 320 266 234 239 232 230 208 208 200 186 239 258 278 279 290 318 335 24 12 356 357 343 321 309 243 162 137 111 289 245 55 111 160 186 126
328 323 321 334 309 277 259 229 73 55 292 239 221 233 271 179 202 234 194 188 216 255 269 279 305 314 305 48 19 317 9 336 294 294 252 53 92 135 191 208 195 94 145 147 105
318 322 321 169 223 248 306 291 51 29 260 328 169 186 226 238 223 256 224 187 205 235 274 283 293 77 134 43 16 340 37 288 286 299 12 157 109 191 171 180 153 58 78 99 146
309 310 294 312 237 338 314 116 21 205 306 285 234 183 222 236 215 234 254 222 210 246 282 286 273 256 92 344 337 334 174 300 347 359 272 132 65 204 184 141 140 209 125 139 86
306 304 220 230 270 318 328 24 232 333 283 344 346 277 209 225 259 247 250 259 249 218 268 281 325 360 11 241 237 277 123 177 307 312 258 102 120 200 173 178 216 147 122 102 90
310 177 235 236 215 205 28 327 222 167 293 306 320 287 217 215 225 227 235 281 254 111 325 5 324 48 211 224 208 286 321 241 244 267 341 109 44 341 227 219 185 115 104 111 132
316 281 235 217 195 157 77 252 50 113 315 20 277 11 312 169 301 4 2 25 351 15 19 298 316 301 208 229 249 211 229 357 348 3 320 103 165 190 186 222 122 111 101 73 18
214 297 251 194 99 59 209 250 168 227 140 186 331 317 334 2 7 41 15 341 332 296 355 7 41 309 5 319 76 13 356 30 114 126 232 22 318 190 180 115 90 71 52 48 1
295 304 168 115 99 210 230 244 153 205 261 202 359 216 133 141 352 103 218 190 276 292 351 339 256 304 293 117 78 344 96 96 103 309 259 179 276 87 105 101 138 151 182 41 309
273 260 266 112 184 236 269 266 254 163 209 191 206 200 212 116 3 130 156 249 259 266 189 287 332 347 331 349 56 1 139 137 108 70 268 155 210 131 106 103 93 78 322 286 71
297 293 319 112 235 251 317 283 13 296 132 125 54 123 123 282 226 181 163 209 205 275 201 114 240 191 216 247 33 288 299 138 144 117 289 119 140 153 164 177 183 192 192 86 9
231 270 276 224 234 226 150 289 101 310 307 99 141 271 159 104 54 80 168 165 163 224 201 121 263 311 324 324 8 317 306 40 65 352 94 95 130 167 177 173 127 148 116 64 61
300 324 335 283 340 191 148 314 47 349 334 346 112 279 55 84 48 14 107 236 169 211 164 130 294 327 310 291 263 231 291 223 171 223 151 116 112 145 102 86 87 99 79 74 47
321 310 353 292 343 338 124 140 53 178 354 301 281 80 328 58 38 24 128 130 90 108 113 107 90 16 281 334 329 292 348 11 106 67 81 111 164 114 92 95 99 149 94 76 43